Joliet, IL

10:38 PM CST on February 19, 2017 (GMT -0600)
Joliet Regional

Weather History for KJOT - November, 2012

Change the Weather History Date:

Wednesday, November 21, 2012

  Actual Average (KARR) Record (KARR)
Temperature  
Mean Temperature 42 °F -  
Max Temperature 53 °F 43 °F 60 °F (2010)
Min Temperature 32 °F 27 °F 1 °F (2014)
Degree Days  
Heating Degree Days 22    
Moisture  
Dew Point 41 °F    
Average Humidity 97    
Maximum Humidity 100    
Minimum Humidity 80    
Precipitation  
Precipitation 0.00 in - - ()
Sea Level Pressure  
Sea Level Pressure 30.18 in    
Wind  
Wind Speed 1 mph (South)    
Max Wind Speed 7 mph    
Max Gust Speed -    
Visibility 2 miles    
Events Fog    
Averages and records for this station are not official NWS values.
T = Trace of Precipitation, MM = Missing Value Source: NWS Daily Summary

Daily Weather History Graph

Daily Weather History Graph

Search for Another Location

Airport or City:

Trip Planner

Search our weather history database for the weather conditions in past years. The results will help you decide how hot, cold, wet, or windy it might be!

Date:

Astronomy

Nov. 21, 2012 Rise Set
Actual Time 6:49 AM CST 4:27 PM CST
Civil Twilight 6:18 AM CST 4:58 PM CST
Nautical Twilight 5:45 AM CST 5:32 PM CST
Astronomical Twilight 5:11 AM CST 6:05 PM CST
Moon 12:48 PM CST (11/21) 12:03 AM CST (11/21)
Length of Visible Light 10h 39m
Length of Day
9h 38m
First Quarter, 62% of the Moon is Illuminated
Nov 21
First Quarter
Nov 28
Full
Dec 6
Last Quarter
Dec 13
New
Dec 19
First Quarter

Hourly Weather History & Observations

Time (CST) Temp. Windchill Dew Point Humidity Pressure Visibility Wind Dir Wind Speed Gust Speed Precip Events Conditions
12:15 AM 34.7 °F - 34.5 °F 99% 30.18 in 0.2 mi Calm Calm - N/A Fog Fog
12:35 AM 32.7 °F - 32.5 °F 99% 30.18 in 0.2 mi Calm Calm - N/A Fog Fog
12:55 AM 34.0 °F - 34.0 °F 100% 30.18 in 0.2 mi Calm Calm - N/A Fog Fog
1:15 AM 36.3 °F - 36.1 °F 99% 30.19 in 0.2 mi Calm Calm - N/A Fog Fog
1:35 AM 36.1 °F - 36.0 °F 99% 30.19 in 0.2 mi Calm Calm - N/A Fog Fog
1:55 AM 36.9 °F - 36.7 °F 99% 30.19 in 0.2 mi Calm Calm - N/A Fog Fog
2:15 AM 37.6 °F - 37.4 °F 99% 30.19 in 0.2 mi Calm Calm - N/A Fog Fog
2:35 AM 38.3 °F - 38.3 °F 100% 30.18 in 0.2 mi Calm Calm - N/A Fog Fog
2:55 AM 38.3 °F - 37.9 °F 99% 30.18 in 0.2 mi Calm Calm - N/A Fog Fog
3:15 AM 38.8 °F - 38.7 °F 99% 30.18 in 0.2 mi Calm Calm - N/A Fog Fog
3:35 AM 39.0 °F - 39.0 °F 100% 30.19 in 0.2 mi Calm Calm - N/A Fog Fog
3:55 AM 38.3 °F - 38.3 °F 100% 30.19 in 0.2 mi Calm Calm - N/A Fog Fog
4:15 AM 38.3 °F - 37.9 °F 99% 30.20 in 0.2 mi Calm Calm - N/A Fog Fog
4:35 AM 37.8 °F - 37.8 °F 100% 30.20 in 0.2 mi Calm Calm - N/A Fog Fog
4:55 AM 37.6 °F - 37.6 °F 100% 30.20 in 0.2 mi Calm Calm - N/A Fog Fog
5:15 AM 37.4 °F - 37.4 °F 100% 30.21 in 0.2 mi Calm Calm - N/A Fog Fog
5:35 AM 37.4 °F - 37.4 °F 100% 30.20 in 0.2 mi Calm Calm - N/A Fog Fog
5:55 AM 37.8 °F - 37.8 °F 100% 30.20 in 0.2 mi Calm Calm - N/A Fog Fog
6:15 AM 37.9 °F - 37.9 °F 100% 30.21 in 0.2 mi Calm Calm - N/A Fog Fog
6:35 AM 38.3 °F - 38.3 °F 100% 30.22 in 0.2 mi Calm Calm - N/A Fog Fog
6:55 AM 37.9 °F - 37.9 °F 100% 30.22 in 0.2 mi Calm Calm - N/A Fog Fog
7:15 AM 37.8 °F - 37.8 °F 100% 30.23 in 0.2 mi Calm Calm - N/A Fog Fog
7:35 AM 37.0 °F 34.5 °F 37.0 °F 100% 30.24 in 0.2 mi SW 3.5 mph - N/A Fog Fog
7:55 AM 36.7 °F - 36.7 °F 100% 30.24 in 0.2 mi Calm Calm - N/A Fog Fog
8:15 AM 36.9 °F - 36.9 °F 100% 30.24 in 0.2 mi Calm Calm - N/A Fog Fog
8:35 AM 36.7 °F - 36.7 °F 100% 30.24 in 0.2 mi Calm Calm - N/A Fog Fog
8:55 AM 36.7 °F - 36.7 °F 100% 30.24 in 0.2 mi Calm Calm - N/A Fog Fog
9:15 AM 36.9 °F - 36.9 °F 100% 30.24 in 0.2 mi Calm Calm - N/A Fog Fog
9:35 AM 37.4 °F 34.9 °F 37.4 °F 100% 30.25 in 0.2 mi South 3.5 mph - N/A Fog Fog
9:55 AM 37.9 °F 35.5 °F 37.9 °F 100% 30.24 in 0.2 mi South 3.5 mph - N/A Fog Fog
10:15 AM 39.4 °F 37.2 °F 39.4 °F 100% 30.24 in 0.2 mi South 3.5 mph - N/A Fog Fog
10:35 AM 39.9 °F - 39.9 °F 100% 30.24 in 0.2 mi Calm Calm - N/A Fog Fog
10:55 AM 41.0 °F 39.0 °F 41.0 °F 100% 30.23 in 0.2 mi South 3.5 mph - N/A Fog Fog
11:15 AM 42.3 °F 40.5 °F 42.3 °F 100% 30.23 in 0.2 mi SSW 3.5 mph - N/A Fog Fog
11:35 AM 42.4 °F 39.6 °F 42.4 °F 100% 30.23 in 0.5 mi SW 4.6 mph - N/A Fog Fog
11:55 AM 43.3 °F 40.7 °F 43.3 °F 100% 30.22 in 0.8 mi South 4.6 mph - N/A   Overcast
12:15 PM 43.7 °F 41.1 °F 43.7 °F 100% 30.21 in 1.0 mi South 4.6 mph - N/A   Overcast
12:35 PM 44.6 °F 42.2 °F 44.6 °F 100% 30.20 in 1.8 mi SW 4.6 mph - N/A   Overcast
12:55 PM 45.0 °F 43.5 °F 45.0 °F 100% 30.20 in 1.8 mi SSW 3.5 mph - N/A   Overcast
1:15 PM 45.7 °F 43.4 °F 45.7 °F 100% 30.19 in 2.0 mi SSW 4.6 mph - N/A   Overcast
1:35 PM 46.4 °F 45.2 °F 46.4 °F 100% 30.19 in 2.0 mi SW 3.5 mph - N/A   Overcast
1:55 PM 46.6 °F - 46.6 °F 100% 30.18 in 2.0 mi SSE 4.6 mph - N/A   Mostly Cloudy
2:15 PM 48.2 °F - 47.7 °F 98% 30.16 in 2.5 mi South 3.5 mph - N/A   Clear
2:35 PM 49.1 °F - 48.4 °F 97% 30.16 in 3.0 mi Calm Calm - N/A   Clear
2:55 PM 50.7 °F - 49.3 °F 95% 30.15 in 4.0 mi Calm Calm - N/A   Clear
3:15 PM 53.2 °F - 48.7 °F 85% 30.15 in 5.0 mi SE 3.5 mph - N/A   Clear
3:35 PM 53.6 °F - 47.7 °F 80% 30.14 in 5.0 mi Calm Calm - N/A   Haze
3:55 PM 53.2 °F - 47.3 °F 80% 30.14 in 5.0 mi Calm Calm - N/A   Haze
4:15 PM 52.7 °F - 46.6 °F 80% 30.13 in 5.0 mi Calm Calm - N/A   Haze
4:35 PM 49.6 °F - 45.9 °F 87% 30.14 in 5.0 mi Calm Calm - N/A   Clear
4:55 PM 46.0 °F - 44.4 °F 94% 30.14 in 5.0 mi Calm Calm - N/A   Clear
5:15 PM 44.6 °F - 43.7 °F 97% 30.14 in 2.5 mi Calm Calm - N/A   Clear
5:35 PM 42.6 °F - 41.4 °F 95% 30.14 in 2.0 mi Calm Calm - N/A   Clear
5:55 PM 42.3 °F 39.4 °F 41.7 °F 98% 30.14 in 4.0 mi South 4.6 mph - N/A   Clear
6:15 PM 47.1 °F - 43.9 °F 88% 30.14 in 5.0 mi South 4.6 mph - N/A   Clear
6:35 PM 48.2 °F - 43.9 °F 85% 30.14 in 7.0 mi South 5.8 mph - N/A   Clear
6:55 PM 48.6 °F - 44.6 °F 86% 30.13 in 7.0 mi South 6.9 mph - N/A   Clear
7:15 PM 48.6 °F - 44.6 °F 86% 30.13 in 7.0 mi South 4.6 mph - N/A   Clear
7:35 PM 47.7 °F - 44.6 °F 89% 30.13 in 5.0 mi South 4.6 mph - N/A   Clear
7:55 PM 46.8 °F - 44.2 °F 91% 30.14 in 5.0 mi South 3.5 mph - N/A   Clear
8:15 PM 45.1 °F 43.7 °F 43.9 °F 95% 30.13 in 4.0 mi South 3.5 mph - N/A   Clear
8:35 PM 43.2 °F - 42.4 °F 97% 30.13 in 2.0 mi Calm Calm - N/A   Clear
8:55 PM 43.0 °F 41.3 °F 42.1 °F 97% 30.13 in 2.5 mi South 3.5 mph - N/A   Clear
9:15 PM 44.2 °F 42.7 °F 43.9 °F 99% 30.13 in 2.0 mi South 3.5 mph - N/A   Clear
9:35 PM 42.4 °F 39.6 °F 41.9 °F 98% 30.12 in 1.2 mi South 4.6 mph - N/A   Mist
9:55 PM 44.6 °F 42.2 °F 44.6 °F 100% 30.12 in 2.0 mi South 4.6 mph - N/A   Clear
10:15 PM 45.5 °F 43.2 °F 44.4 °F 96% 30.12 in 2.0 mi South 4.6 mph - N/A   Clear
10:35 PM 46.2 °F 43.3 °F 44.8 °F 95% 30.12 in 2.0 mi South 5.8 mph - N/A   Clear
10:55 PM 46.4 °F 44.3 °F 44.8 °F 94% 30.11 in 2.0 mi South 4.6 mph - N/A   Clear
11:15 PM 46.4 °F 43.5 °F 44.8 °F 94% 30.11 in 2.5 mi South 5.8 mph - N/A   Clear
11:35 PM 46.2 °F 43.3 °F 44.4 °F 93% 30.11 in 2.5 mi South 5.8 mph - N/A   Clear
11:55 PM 46.4 °F 43.5 °F 44.6 °F 93% 30.11 in 2.5 mi South 5.8 mph - N/A   Clear